Current weather by "City, St" or "zip code"  
 

Current Conditions: The Florida Keys - Marathon International Airport, FL

Mostly Cloudy


81.0 F

Last Updated on Oct 24 2020, 8:53 pm EDT
Humidity: 88%
Wind Speed: SE 9.2 mph
Barometer 29.84 in
Dewpoint: 77.0 F
Visibility: 10.00 mi
Precip: --
Heat Index: 88 F
Wind Chill: NA
Current conditions at:

The Florida Keys - Marathon International Airport, FL (KMTH)

Lat: 24.72626 Lon: 81.04765

Local Radar Image active severe weather and emergency alerts image image weather storm and storm spotter reports image weather observation monitoring service image
Local
Radar
Active
Alerts
Storm Reports Obs
Monitoring

Sign-up For Email & Text Message Weather Alert Notification Services



Advertise Here

Observation History for The Florida Keys - Marathon International Airport, FL


Time Wind
(mph)
Vis
(mi)
Weather Precip (in) Temperature (F) Relative
Humidity
Wind
Chill
(F)
Heat
Index
(F)
Pressure
Air Dwpt altimeter
(in)
sea level
(mb)
Rmks
8:53 pm EDT SE 9.2 10.00 Mostly Cloudy -- 81.0 77.0 88% NA 88 29.84 1010.4
7:53 pm EDT SE 8.1 10.00 Fair -- 81.0 75.9 85% NA 87 29.82 1009.8
6:53 pm EDT E 8.1 10.00 Partly Cloudy Trace 81.0 75.9 85% NA 87 29.82 1009.7
5:53 pm EDT E 6.9 10.00 Fair -- 81.0 77.0 88% NA 88 29.81 1009.4
4:53 pm EDT E 6.9 10.00 Fair -- 81.0 75.9 85% NA 87 29.81 1009.2
3:53 pm EDT E 8.1 10.00 A Few Clouds -- 81.0 75.9 85% NA 87 29.81 1009.3
2:53 pm EDT SE 6.9 10.00 A Few Clouds Trace 83.0 78.1 85% NA 93 29.82 1009.8
1:53 pm EDT E 6.9 5.00 Light Rain Fog/Mist 00.08 79.0 77.0 94% NA NA 29.85 1010.9
12:53 pm EDT SE 8.1 10.00 Mostly Cloudy Trace 85.0 78.1 80% NA 97 29.88 1011.8
11:53 am EDT E 12.7 10.00 A Few Clouds -- 84.0 75.9 77% NA 93 29.89 1012.2
10:53 am EDT E 10.4 10.00 A Few Clouds -- 84.0 75.9 77% NA 93 29.90 1012.5
9:53 am EDT E 8.1 10.00 Fair -- 82.0 75.9 82% NA 89 29.90 1012.4
8:53 am EDT E 8.1 10.00 Mostly Cloudy Trace 80.0 75.9 87% NA 85 29.89 1012.2
7:53 am EDT E 6.9 10.00 Mostly Cloudy -- 79.0 73.9 85% NA NA 29.88 1011.7
6:53 am EDT E 10.4 10.00 Mostly Cloudy -- 80.0 73.9 82% NA 84 29.87 1011.4
5:53 am EDT E 10.4 10.00 Fair -- 80.0 73.9 82% NA 84 29.86 1011.1
4:53 am EDT E 12.7 G 18.4 10.00 Partly Cloudy -- 80.0 73.0 79% NA 84 29.86 1010.9
3:53 am EDT E 11.5 G 18.4 10.00 Mostly Cloudy -- 80.0 73.0 79% NA 84 29.87 1011.4
2:53 am EDT E 10.4 10.00 Partly Cloudy -- 80.0 73.0 79% NA 84 29.88 1011.7
1:53 am EDT E 9.2 G 20.7 10.00 A Few Clouds -- 80.0 73.0 79% NA 84 29.89 1011.9
12:53 am EDT E 12.7 G 18.4 10.00 Partly Cloudy -- 81.0 73.0 77% NA 86 29.91 1012.7
11:53 pm EDT E 12.7 G 19.6 10.00 A Few Clouds -- 81.0 72.0 74% NA 85 29.91 1012.9
10:53 pm EDT E 12.7 G 20.7 10.00 Fair -- 81.0 72.0 74% NA 85 29.92 1013.2

Regional Weather Observation


Key West Naval Air Station, FL (KNQX)

Mostly Cloudy
84.0 F

Key West International Airport, FL (KEYW)

A Few Clouds
82.0 F

Homestead Air Reserve Base, FL (KHST)

Mostly Cloudy
79.0 F

Miami, Kendall-Tamiami Executive Airport, FL (KTMB)

Fair
77.0 F

Miami, Miami International Airport, FL (KMIA)

Mostly Cloudy
79.0 F

Miami, Opa Locka Airport, FL (KOPF)

A Few Clouds
77.0 F